Flag for Canada Weather past 2 weeks in Rainy River, Ontario, Canada

Now
27 °F

Sunny.


Feels Like: 20 °F
Forecast: 5 / 36 °F
Wind: 6 mph from North

Location: Baudette International Airport

Current Time: Mar 27, 2015 at 12:24:17 PM

Latest Report: Mar 27, 2015 at 11:53 AM


Visibility: 10 mi

Pressure: 30.24 "Hg

Humidity: 42%

Dew point: 7 °F

Location of Rainy RiverLocation

Historic Weather in Rainy River — Graph

°F

Rainy River temperature yesterday

Maximum temperature yesterday: 25 °F (at 12:53 AM)
Minimum temperature yesterday: 16 °F (at 11:53 PM)
Average temperature yesterday: 21 °F

Past Weeks' High & Low Weather Summary

 TemperatureHumidityPressure
High62 °F (Mar 15, 2:53 PM)96% (Mar 19, 5:53 AM)30.46 "Hg (Mar 19, 5:53 AM)
Low5 °F (Mar 21, 6:53 AM)28% (Mar 22, 3:53 PM)29.59 "Hg (Mar 25, 7:02 AM)
Average33 °F64%30.11 "Hg
* Reported Mar 12 10:53 AM — Mar 27 10:53 AM, Rainy River, Weather by CustomWeather, © 2015

Note: Actual official high and low records may vary slightly from our data, if they occured in-between our weather recording intervals... More about our weather records

Advertising

Rainy River weather history for previous 24 hours

 ConditionsComfort  
Time TempWeatherWind HumidityBarometerVisibility
10:53 AM
Fri, Mar 27
24 °FSunny.8 mph44%30.26 "Hg10 mi
9:53 AM21 °FSunny.9 mph55%30.28 "Hg10 mi
8:53 AM17 °FSunny.8 mph68%30.30 "Hg10 mi
7:53 AM10 °FClear.3 mph80%30.30 "Hg10 mi
6:53 AM7 °FClear.3 mph83%30.31 "Hg10 mi
5:53 AM8 °FClear.No wind83%30.32 "Hg10 mi
4:53 AM10 °FClear.No wind80%30.33 "Hg10 mi
3:53 AM9 °FClear.No wind80%30.32 "Hg10 mi
2:53 AM10 °FClear.No wind80%30.33 "Hg10 mi
1:53 AM13 °FClear.No wind70%30.33 "Hg10 mi
12:53 AM14 °FClear.3 mph71%30.34 "Hg10 mi
11:53 PM
Thu, Mar 26
16 °FClear.6 mph56%30.32 "Hg10 mi
10:53 PM17 °FClear.6 mph59%30.32 "Hg10 mi
9:53 PM18 °FClear.6 mph57%30.32 "Hg10 mi
8:53 PM20 °FClear.8 mph50%30.31 "Hg10 mi
7:53 PM22 °FSunny.10 mph44%30.30 "Hg10 mi
6:53 PM24 °FSunny.14 mph36%30.29 "Hg10 mi
5:53 PM25 °FSunny.10 mph37%30.28 "Hg10 mi
4:53 PM25 °FSunny.15 mph38%30.27 "Hg10 mi
3:53 PM24 °FSunny.16 mph44%30.27 "Hg10 mi
2:53 PM23 °FSunny.14 mph48%30.27 "Hg10 mi
1:53 PM22 °FSunny.15 mph52%30.28 "Hg10 mi
12:53 PM22 °FSunny.18 mph55%30.28 "Hg10 mi
Weather by CustomWeather, © 2015

See weather overviewHow to use our weather pages